Location: Taupo
(38.6830°S, 176.0830°E)
Time: 17:26:51
(UTC+13:00)

Cosmos 2263 Rocket - Pass Details

Date: 24 January 2019
Orbit: 824 x 848 km, 71.0° (Epoch: 19 February)

Event Time Altitude Azimuth Distance (km) Brightness Sun altitude
Rises 21:36:49 0° 198° (SSW) 3,410 6.3 -10.8°
Reaches altitude 10° 21:39:21 10° 193° (SSW) 2,473 5.4 -11.2°
Maximum altitude 21:44:53 51° 117° (ESE) 1,056 2.5 -12.1°
Enters shadow 21:49:03 17° 46° (NE) 1,993 3.5 -12.7°
